Погода Геокчаы

Погода Геокчаы : погода сейчас, прогноз погоды и архив. Всё, что Вы хотите узнать о погоде Геокчаы!

Поиск расширенной информации на нашем сайте:

Другие новости

Новости СМИ2

Главная страница сайта

Новости сайта

03.07.2017

Напоминаем, что на нашем специализированном сайте Метеоцентр.Азия вы можете получить высокодетализированные автоматические прогнозы погоды по пунктам России, СНГ и мира в авиационном формате (включающие направление и скорость ветра, видимость, явления погоды, количество и форму облачности, нижнюю и верхнюю границу облачности).


Погода Геокчаы - сегодня

Время (UTC), дата Ветер
(°,м/с) 
Видим.   Явления Облачность Т
(°С)
Тd
(°С)
f(%) Тe
(°С)
Pmin
(гПа)
dP
(гПа)
Po
(мм)
O2
(г/м3)
Тmin Tmax R s Состояние
почвы
21 17.09.17 020 (С) 20000 м    ясно 
+19.9 +11 56 +23  1020  0.2  757  282           
00 18.09.17 020 (С) 20000 м    ясно 
+19.2 +8.2 49 +20  1019.4  -0.6  756  283           
03 18.09.17 180 (Ю) 20000 м    ясно 
+18.3 +6.7 47 +19  1019.9  0.5  757  285           
09 18.09.17 230 (ЮЗ) 20000 м    ясно 
+30.3 +10.2 29 +32  1018.7  -1.6  756  272           
12 18.09.17 140 (ЮВ) 20000 м    ясно 
+32.2 +6.2 20 +32  1016.8  -1.9  755  271           
15 18.09.17 110 (В) 20000 м    ясно 
+26.5 +11 38 +29  1016.5  -0.4  754  275           
18 18.09.17 200 (Ю) 20000 м    ясно 
+23.6 +7.7 36 +24  1017.6  0.9  755  279    +32.7       
21 18.09.17 200 (Ю) 20000 м    ясно 
+21 +9.2 47 +21  1017.8  0.1  755  281           
00 19.09.17 200 (Ю) 20000 м    ясно 
+19.3 +9 51 +20  1017.2  -0.6  755  282           
03 19.09.17 200 (Ю) 20000 м    ясно 
+17.7 +8.4 54 +19  1017.6  0.3  755  284           
06 19.09.17 290 (З) 20000 м    ясно 
+25.1 +14.4 51 +33  1018  0.6  755  276  +17.3         
09 19.09.17 140 (ЮВ) 20000 м    ясно 
+29 +11.5 34 +32  1016.7  -1.1  754  273           
12 19.09.17 180 (Ю) 20000 м    ясно 
+31.4 +12.1 31 +35  1014.9  -1.6  753  270           
15 19.09.17 140 (ЮВ) 20000 м    ясно 
+26.7 +12 40 +31  1015.6  0.5  754  274           
18 19.09.17 090 (В) 20000 м    ясно 
+23.4 +12 49 +27  1017.1  1.4  755  278    +31.7       
21 19.09.17 200 (Ю) 20000 м    ясно 
+21.3 +11.9 55 +25  1017.1  755  280           
00 20.09.17 200 (Ю) 20000 м    ясно 
+19.8 +11.1 57 +24  1017  -0.3  754  281           
03 20.09.17 250 (З) 20000 м    3/0 средняя 
[Ac trans]
+18.6 +9.8 57 +21  1017.2  0.2  755  283           
06 20.09.17 270 (З) 20000 м    4/4 1000 м 
[Cu med, cong]
+26.4 +16.4 54 +37  1017.7  0.8  755  274  +18.4         
09 20.09.17 160 (Ю) 20000 м    ясно 
+29.4 +18 50 +44  1016  -1.5  754  270           
12 20.09.17 180 (Ю) 20000 м    ясно 
+32.2 +16.9 40 +44  1014.2  -1.8  753  268           
15 20.09.17 180 (Ю) 20000 м    ясно 
+27.3 +17.3 54 +40  1014.5  0.2  753  272           
18 20.09.17 020 (С) 20000 м    ясно 
+23.4 +15.4 61 +33  1015.6  0.9  753  276    +33       
21 20.09.17 020 (С) 20000 м    ясно 
+21.1 +14 64 +28  1015.9  0.3  754  279           
00 21.09.17 020 (С) 20000 м    ясно 
+19.5 +12.9 66 +26  1015.8  -0.3  753  281           
Время (UTC), дата Ветер
(°,м/с) 
Видим.   Явления Облачность Т
(°С)
Тd
(°С)
f(%) Тe
(°С)
Pmin
(гПа)
dP
(гПа)
Po
(мм)
O2
(г/м3)
Тmin Tmax R s Состояние
почвы

Для получения пояснительной информации подведите курсор к названию столбца.

ПОГОДА Геокчаы - архив

Всё, что Вы хотите узнать о погоде Геокчаы - удобно и подробно!

Выберите нужную дату (начиная с 1 января 2015* года) и нажмите кнопку "Найти".
Будут отображены архивные сводки погоды по пункту Геокчаы, начиная с указанной даты.


Отображать данные в формате CSV (для использования в таблицах Excel)


Внимание! Наш архив погоды предназначен исключительно для личного некоммерческого использования в познавательных целях. Если Вам необходимы официальные справки о состоянии погоды (для производственных, юридических, коммерческих и т.п. целей), обращайтесь в органы Росгидромета.

*Примечание: данная дата относится к архиву по метеостанциям СССР (Россия, СНГ, Балтия).
Архив по метеостанциям Зарубежной Европы и Азии (кроме Китая) хранится 10 дней, по другим регионам земного шара (Китай, Африка, Америка, Австралия, Океания) - 1 день.

Геокчаы - район местоположения метеостанции


Название, широта, долгота, высота метеостанции:
Геокчаы 40.6°ш. 47.8°д. 95 м над ур. моря [Азербайджан]

Дополнительная информация

В oтличие oт бoльшинства пoгoдных сайтoв мы публикуем пoдрoбную метеoинфoрмацию в детальнoм прoфессиoнальнoм фoрмате.

Характеристики температуры и влажнoсти вoздуха измеряются на высoте 2 м в тени вдали oт зданий и деревьев.
Скoрoсть ветра измеряется на высoте 10 м (на урoвне рoста челoвека скoрoсть ветра ниже в 1.5-2 раза). Если метеoстанция нахoдится в гoрoде или в лесу, тo скoрoсть ветра занижена на 2-4 м/с пo сравнению с oткрытым местoм. Скoрoсть ветра над акватoриями крупных рек и oзёр, а также на вершинах хoлмoв на 2-5 м/с выше, чем в oбычных услoвиях.
Атмoсфернoе давление в разных тoчках местнoсти мoжет значительнo oтличаться oт давления на метеoстанции, в зависимoсти oт услoвий рельефа (при пoдъёме на 10 м давление пoнижается примернo на 1 мм рт.ст.).